Weather History for Chillicothe, MO

Change the Weather History Date:

Tuesday, July 9, 2013

  Actual Average (KIRK) Record (KIRK)
Temperature  
Mean Temperature 86 °F 75 °F  
Max Temperature 96 °F 85 °F 101 °F (1936)
Min Temperature 75 °F 65 °F 50 °F (1961)
Degree Days  
Heating Degree Days 0 0  
Month to date heating degree days 0  
Since 1 June heating degree days 16  
Since 1 July heating degree days 0  
Cooling Degree Days 20 10  
Month to date cooling degree days 84  
Year to date cooling degree days 338  
Since 1 June cooling degree days 276  
Growing Degree Days 36 (Base 50)    
Moisture  
Dew Point 71 °F    
Average Humidity 62    
Maximum Humidity 76    
Minimum Humidity 46    
Precipitation  
Precipitation 0.00 in 0.13 in 3.53 in (1969)
Month to date precipitation 1.18  
Year to date precipitation 20.11  
Sea Level Pressure  
Sea Level Pressure 29.90 in    
Wind  
Wind Speed 7 mph (South)    
Max Wind Speed 15 mph    
Max Gust Speed 22 mph    
T = Trace of Precipitation, MM = Missing Value Source: NWS Daily Summary

Daily Weather History Graph

Daily Weather History Graph

Search for Another Location

Airport:

Trip Planner

Search our weather history database for the weather conditions in past years. The results will help you decide how hot, cold, wet, or windy it might be!

Date:

Astronomy

Jul. 09, 2013 Rise Set
Actual Time 5:54 AM CDT 8:44 PM CDT
Civil Twilight 5:22 AM CDT 9:16 PM CDT
Nautical Twilight 4:41 AM CDT 9:56 PM CDT
Astronomical Twilight 3:55 AM CDT 10:42 PM CDT
Moon 7:19 AM CDT (7/9) 9:22 PM CDT (7/9)
Length of Visible Light 15h 54m
Length of Day
14h 49m
New Moon, 2% of the Moon is Illuminated
Jul 9
New Moon
Jul 15
First Quarter
Jul 22
Full
Jul 29
Last Quarter
Aug 6
New

Hourly Weather History & Observations

Time (CDT) Temp. Heat Index Dew Point Humidity Pressure Visibility Wind Dir Wind Speed Gust Speed Precip Events Conditions
12:52 AM 82.9 °F 86.5 °F 69.1 °F 63% 29.95 in - South 8.1 mph - N/A   Unknown
1:52 AM 82.9 °F 85.8 °F 68.0 °F 60% 29.94 in - South 8.1 mph - N/A   Unknown
2:52 AM 81.0 °F 84.1 °F 69.1 °F 67% 29.95 in - South 6.9 mph - N/A   Unknown
3:52 AM 78.1 °F - 69.1 °F 74% 29.94 in - South 4.6 mph - N/A   Unknown
4:52 AM 77.0 °F - 68.0 °F 74% 29.94 in - South 3.5 mph - N/A   Unknown
5:52 AM 75.9 °F - 68.0 °F 76% 29.96 in - South 4.6 mph - N/A   Unknown
6:52 AM 77.0 °F - 69.1 °F 76% 29.98 in - SSW 3.5 mph - N/A   Unknown
7:52 AM 78.1 °F - 70.0 °F 76% 29.96 in - SSE 4.6 mph - N/A   Unknown
8:52 AM 81.0 °F 84.9 °F 71.1 °F 72% 29.95 in - South 6.9 mph - N/A   Unknown
9:52 AM 84.0 °F 88.4 °F 70.0 °F 63% 29.94 in - SW 5.8 mph - N/A   Unknown
10:52 AM 87.1 °F 93.6 °F 72.0 °F 61% 29.94 in - SSW 6.9 mph - N/A   Unknown
11:52 AM 84.9 °F 90.1 °F 71.1 °F 63% 29.95 in - SSW 4.6 mph - N/A   Unknown
12:52 PM 89.1 °F 97.0 °F 73.0 °F 59% 29.91 in - SSW 12.7 mph - N/A   Unknown
1:52 PM 93.0 °F 101.9 °F 73.0 °F 52% 29.88 in - South 12.7 mph 19.6 mph N/A   Unknown
2:52 PM 93.9 °F 103.4 °F 73.0 °F 51% 29.86 in - South 13.8 mph 19.6 mph N/A   Unknown
3:52 PM 95.0 °F 102.5 °F 71.1 °F 46% 29.85 in - South 15.0 mph 21.9 mph N/A   Unknown
4:52 PM 96.1 °F 105.6 °F 73.0 °F 47% 29.85 in - South 10.4 mph 19.6 mph N/A   Unknown
5:52 PM 96.1 °F 105.6 °F 73.0 °F 47% 29.83 in - South 11.5 mph - N/A   Unknown
6:52 PM 95.0 °F 104.5 °F 73.0 °F 49% 29.83 in - South 5.8 mph - N/A   Unknown
7:52 PM 91.9 °F 101.3 °F 73.9 °F 55% 29.83 in - SSE 4.6 mph - N/A   Unknown
8:52 PM 90.0 °F 97.9 °F 73.0 °F 57% 29.83 in - South 3.5 mph - N/A   Unknown
9:52 PM 88.0 °F 95.6 °F 73.0 °F 61% 29.84 in - SSE 4.6 mph - N/A   Unknown
10:52 PM 86.0 °F 93.0 °F 73.0 °F 65% 29.85 in - South 4.6 mph - N/A   Unknown
11:52 PM 84.0 °F 90.2 °F 73.0 °F 69% 29.86 in - South 4.6 mph - N/A   Unknown